| time (UTC) | temp F | wind direction | speed MPH | gust MPH | rain 1hr in | rain 24hr in | rain mn in | humidity % | barometer mb |
| 20260505053352 | 76 | 0.0 | 0.0 | 0.00 | 0.00 | 0.00 | 54 | 1024.3 | |
| 20260505051852 | 77 | 0.0 | 0.0 | 0.00 | 0.00 | 0.00 | 53 | 1024.3 | |
| 20260505050352 | 77 | 0.0 | 0.0 | 0.00 | 0.00 | 0.00 | 52 | 1024.3 | |
| 20260505040352 | 78 | 0.0 | 0.0 | 0.00 | 0.00 | 0.00 | 51 | 1024.4 | |
| 20260505034852 | 78 | 0.0 | 0.0 | 0.00 | 0.00 | 0.00 | 52 | 1024.5 | |
| 20260505033352 | 78 | 0.0 | 0.0 | 0.00 | 0.00 | 0.00 | 51 | 1024.3 | |
| 20260505031852 | 78 | 0.0 | 0.0 | 0.00 | 0.00 | 0.00 | 52 | 1024.4 | |
| 20260505030352 | 77 | 0.0 | 0.0 | 0.00 | 0.00 | 0.00 | 52 | 1024.4 | |
| 20260505024852 | 77 | 0.0 | 0.0 | 0.00 | 0.00 | 0.00 | 53 | 1024.4 | |
| 20260505023352 | 78 | 0.0 | 0.0 | 0.00 | 0.00 | 0.00 | 52 | 1024.3 | |
| 20260505021852 | 77 | 0.0 | 0.0 | 0.00 | 0.00 | 0.00 | 52 | 1024.3 | |
| 20260505020352 | 78 | 0.0 | 0.0 | 0.00 | 0.00 | 0.00 | 51 | 1024.2 | |
| 20260505014852 | 78 | 0.0 | 0.0 | 0.00 | 0.00 | 0.00 | 52 | 1024.4 | |
| 20260505013352 | 78 | 0.0 | 0.0 | 0.00 | 0.00 | 0.00 | 52 | 1024.2 | |
| 20260505011852 | 78 | 0.0 | 0.0 | 0.00 | 0.00 | 0.00 | 52 | 1024.1 | |
| 20260505010352 | 79 | 0.0 | 0.0 | 0.00 | 0.00 | 0.00 | 50 | 1024.0 | |
| 20260505004852 | 79 | 0.0 | 0.0 | 0.00 | 0.00 | 0.00 | 50 | 1023.9 | |
| 20260505003352 | 79 | 0.0 | 0.0 | 0.00 | 0.00 | 0.00 | 50 | 1023.7 | |
| 20260505001852 | 79 | 0.0 | 0.0 | 0.00 | 0.00 | 0.00 | 50 | 1023.6 | |
| 20260505000352 | 80 | 0.0 | 0.0 | 0.00 | 0.00 | 0.00 | 48 | 1023.4 | |
| 20260504234852 | 80 | 0.0 | 0.0 | 0.00 | 0.00 | 0.00 | 48 | 1023.3 | |
| 20260504233351 | 81 | 0.0 | 0.0 | 0.00 | 0.00 | 0.00 | 46 | 1023.0 | |
| 20260504231851 | 82 | 0.0 | 0.0 | 0.00 | 0.00 | 0.00 | 44 | 1022.7 | |
| 20260504230351 | 82 | 0.0 | 0.0 | 0.00 | 0.00 | 0.00 | 45 | 1022.5 | |
| 20260504224851 | 83 | 0.0 | 0.0 | 0.00 | 0.00 | 0.00 | 44 | 1022.2 | |
| 20260504223351 | 83 | 0.0 | 0.0 | 0.00 | 0.00 | 0.00 | 44 | 1022.1 | |
| 20260504221851 | 83 | 0.0 | 0.0 | 0.00 | 0.00 | 0.00 | 43 | 1021.9 | |
| 20260504220351 | 83 | 0.0 | 0.0 | 0.00 | 0.00 | 0.00 | 43 | 1021.7 | |
| 20260504214851 | 84 | 0.0 | 0.0 | 0.00 | 0.00 | 0.00 | 42 | 1021.3 | |
| 20260504213351 | 84 | 0.0 | 0.0 | 0.00 | 0.00 | 0.00 | 42 | 1021.1 | |
| 20260504211851 | 85 | 0.0 | 0.0 | 0.00 | 0.00 | 0.00 | 41 | 1021.0 | |
| 20260504210351 | 85 | 0.0 | 0.0 | 0.00 | 0.00 | 0.00 | 41 | 1021.0 | |
| 20260504204851 | 86 | 0.0 | 0.0 | 0.00 | 0.00 | 0.00 | 40 | 1020.7 | |
| 20260504203351 | 85 | 0.0 | 0.0 | 0.00 | 0.00 | 0.00 | 39 | 1020.6 | |
| 20260504201851 | 86 | 0.0 | 0.0 | 0.00 | 0.00 | 0.00 | 39 | 1020.7 | |
| 20260504200351 | 87 | 0.0 | 0.0 | 0.00 | 0.00 | 0.00 | 38 | 1020.4 | |
| 20260504194851 | 86 | 0.0 | 0.0 | 0.00 | 0.00 | 0.00 | 37 | 1020.5 | |
| 20260504193351 | 88 | 0.0 | 0.0 | 0.00 | 0.00 | 0.00 | 35 | 1020.2 | |
| 20260504191851 | 97 | 0.0 | 0.0 | 0.00 | 0.00 | 0.00 | 27 | 1019.0 | |
| 20260504190351 | 121 | 0.0 | 0.0 | 0.00 | 0.00 | 0.00 | 14 | 1015.9 | |
| 20260504184851 | 117 | 0.0 | 0.0 | 0.00 | 0.00 | 0.00 | 16 | 1016.5 | |
| 20260504183351 | 89 | 0.0 | 0.0 | 0.00 | 0.00 | 0.00 | 37 | 1020.0 | |
| 20260504181851 | 86 | 0.0 | 0.0 | 0.00 | 0.00 | 0.00 | 40 | 1020.5 | |
| 20260504180351 | 85 | 0.0 | 0.0 | 0.00 | 0.00 | 0.00 | 42 | 1020.7 | |
| 20260504174851 | 85 | 0.0 | 0.0 | 0.00 | 0.00 | 0.00 | 41 | 1020.9 | |
| 20260504173351 | 86 | 0.0 | 0.0 | 0.00 | 0.00 | 0.00 | 40 | 1020.8 | |
| 20260504171851 | 87 | 0.0 | 0.0 | 0.00 | 0.00 | 0.00 | 39 | 1020.8 | |
| 20260504170351 | 86 | 0.0 | 0.0 | 0.00 | 0.00 | 0.00 | 41 | 1021.2 | |
| 20260504160351 | 84 | 0.0 | 0.0 | 0.00 | 0.00 | 0.00 | 41 | 1022.1 | |
| 20260504150351 | 83 | 0.0 | 0.0 | 0.00 | 0.00 | 0.00 | 44 | 1023.0 | |
| 20260504140350 | 82 | 0.0 | 0.0 | 0.00 | 0.00 | 0.00 | 44 | 1024.1 | |
| 20260504130350 | 79 | 0.0 | 0.0 | 0.00 | 0.00 | 0.00 | 46 | 1024.9 | |
| 20260504110350 | 72 | 0.0 | 0.0 | 0.00 | 0.00 | 0.00 | 56 | 1025.5 | |
| 20260504100350 | 69 | 0.0 | 0.0 | 0.00 | 0.00 | 0.00 | 58 | 1024.9 | |
| 20260504081850 | 69 | 0.0 | 0.0 | 0.00 | 0.00 | 0.00 | 58 | 1023.9 | |
| 20260504080350 | 69 | 0.0 | 0.0 | 0.00 | 0.00 | 0.00 | 57 | 1023.9 | |
| 20260504070350 | 70 | 0.0 | 0.0 | 0.00 | 0.00 | 0.00 | 57 | 1023.9 |